EHI
0 0 0 0 0 0 0 0 0 0 0 0 0 0 0 0 0 0 0 0 0 0 0 0 0 0 0 0 0 0 0 0 0 0 0 0 0 0
0 0 0 0 0 0 0 0 0 0 0 0 0 0 0 0 0 0 0 0 0 0 0 0 0 0 0 0 0 0 0 0 0 0 0 0 0 0
0 0 0 0 0 0 0 0 0 0 0 0 0 0 0 0 0 0 0 0 0 0 0 0 0 0 0 0 0 0 0 0 0 0 0 0 0 0
0 0 0 0 0 0 0 0 0 0 0 0 0 0 0 0 0 0 0 0 0 0 0 0 0 0 0 0 0 0 0 0 0 0 0 0 0 0
0 0 0 0 0 0 0 0 0 0 0 0 0 0 0 0 0 0 0 0 0 0 0 0 0 0 0 0 0 0 0 0 0 0 0 0 0 0
0 0 0 0 0 0 0 0 0 0 0 0 0 0 0 0 0 0 0 0 0 0 0 0 0 0 0 0 0 0 0 0 0 0 0 0 0 0
0 0 0 0 0 0 0 0 0 0 0 0 0 0 0 0 0 0 0 0 0 0 0 0 0 0 0 0 0 0 0 0 0 0 0 0 0 0
0 0 0 0 0 0 0 0 0 0 0 0 0 0 0 0 0 0 0 0 0 0 0 0 0 0 0 0 0 0 0 0 0 0 0 0 0 0
0 0 0 0 0 0 0 0 0 0 0 0 0 0 0 0 0 0 0 0 0 0 0 0 0 0 0 0 0 0 0 0 0 0 0 0 0 0
0 0 0 0 0 0 0 0 0 0 0 0 0 0 0 0 0 0 0 0 0 0 0 0 0 0 0 0 0 0 0 0 0 0 0 0 0 0
0 0 0 0 0 0 0 0 0 0 0 0 0 0 0 0 0 0 0 0 0 0 0 0 0 0 0 0 0 0 0 0 0 0 0 0 0 0
0 0 0 0 0 0 0 0 0 0 0 0 0 0 0 0 0 0 0 0 0 0 0 0 0 0 0 0 0 0 0 0 0 0 0 0 0 0
0 0 0 0 0 0 0 0 0 0 0 0 0 0 0 0 0 0 0 0 0 0 0 0 0 0 0 0 0 0 0 0 0 0 0 0 0 0
0 0 0 0 0 0 0 0 0 0 0 0 0 0 0 0 0 0 0 0 0 0 0 0 0 0 0 0 0 0 0 0 0 0 0 0 0 0
0 0 0 0 0 0 0 0 0 0 0 0 0 0 0 0 0 0 0 0 0 0 0 0 0 0 0 0 0 0 0 0 0 0 0 0 0 0
0 0 0 0 0 0 0 0 0 0 0 0 0 0 0 0 0 0 0 0 0 0 0 0 0 0 0 0 0 0 0 0 0 0 0 0 0 0
0 0 0 0 0 0 0 0 0 0 0 0 0 0 0 0 0 0 0 0 0 0 0 0 0 0 0 0 0 0 0 0 0 0 0 0 0 0
0 0 0 0 0 0 0 0 0 0 0 0 0 0 0 0 0 0 0 0 0 0 0 0 0 0 0 0 0 0 0 0 0 0 0 0 0 0
0 0 0 0 0 0 0 0 0 0 0 0 0 0 0 0 0 0 0 0 0 0 0 0 0 0 0 0 0 0 0 0 0 0 0 0 0 0
0 0 0 0 0 0 0 0 0 0 0 0 0 0 0 0 0 0 0 0 0 0 0 0 0 0 0 0 0 0 0 0 0 0 0 0 0 0
0 0 0 0 0 0 0 0 0 0 0 0 0 0 0 0 0 0 0 0 0 0 0 0 0 0 0 0 0 0 0 0 0 0 0 0 0 0
0 0 0 0 0 0 0 0 0 0 0 0 0 0 0 0 0 0 0 0 0 0 0 0 0 0 0 0 0 0 0 0 0 0 0 0 0 0
0 0 0 0 0 0 0 0 0 0 0 0 0 0 0 0 0 0 0 0 0 0 0 0 0 0 0 0 0 0 0 0 0 0 0 0 0 0
Wind_Speed
14 14 12 11 10 11 11 11 12 14 15 17 13 13 12 12 16 16 17 23 28 30 31 32 33 34 34 35 35 35 35 35 34 33 33 33 30 25
11 13 13 11 10 11 11 11 12 13 15 14 14 15 15 13 18 18 18 27 30 31 32 33 33 34 34 34 34 34 34 34 33 32 33 32 31 26
14 14 15 14 11 11 11 12 12 13 16 17 15 16 19 19 17 17 17 18 17 28 31 33 33 34 34 34 34 33 33 33 32 31 31 31 30 26
16 15 16 12 15 13 12 14 13 14 15 19 17 16 19 19 19 19 17 16 17 25 31 33 33 34 33 33 33 32 32 31 31 30 29 30 30 27
15 16 16 15 16 14 14 14 13 13 14 16 18 16 16 16 18 19 19 17 18 20 27 29 31 32 32 32 32 31 30 30 29 28 28 28 28 27
15 15 15 16 16 16 14 15 14 15 16 16 16 16 15 16 16 15 15 14 15 15 19 21 25 29 31 31 30 30 29 28 27 27 26 26 26 25
15 15 16 19 21 18 13 14 14 14 14 14 15 15 15 14 13 13 15 15 16 14 15 15 15 15 17 21 24 25 26 26 26 25 25 25 25 24
15 15 15 18 22 26 27 26 22 17 16 15 15 16 18 17 15 14 15 16 17 12 14 15 14 15 14 13 19 23 24 25 25 25 25 24 24 24
15 14 12 13 18 14 18 23 23 26 26 19 19 19 19 18 18 20 18 18 17 14 14 16 14 15 14 15 24 25 26 26 26 25 25 24 23 23
16 15 15 14 13 13 13 15 16 16 18 15 15 17 17 17 16 17 17 17 18 14 14 15 14 14 14 13 21 25 26 26 26 26 25 24 23 22
15 15 15 14 17 19 15 16 17 14 17 23 24 23 27 27 22 14 14 14 15 13 11 12 13 13 13 13 15 22 23 24 25 25 24 23 22 21
12 13 18 18 18 19 14 14 15 13 12 14 16 17 17 18 22 14 12 13 14 13 10 9 11 10 10 9 8 8 11 16 21 23 24 23 21 14
9 9 10 17 19 19 17 13 15 15 13 13 12 12 11 10 10 10 10 11 13 13 10 9 10 10 10 10 10 9 8 7 9 13 19 22 22 17
9 8 9 14 16 17 14 14 18 17 10 10 11 11 11 10 10 11 12 13 13 15 14 13 12 11 12 12 10 8 7 7 7 7 8 15 19 22
9 13 13 14 14 12 13 15 14 9 8 9 10 11 10 11 11 11 12 12 14 14 14 15 14 12 12 12 11 10 8 7 6 6 6 8 10 11
11 12 15 14 11 11 11 9 7 7 8 9 10 10 11 10 10 10 10 10 10 10 11 13 13 14 12 13 11 10 9 6 5 4 4 6 8 9
8 6 6 6 7 6 6 6 6 6 7 8 9 10 10 10 10 9 9 10 10 10 9 7 9 10 13 12 11 10 9 9 8 6 5 6 8 9
11 7 7 7 7 6 6 6 6 6 7 7 8 9 10 10 10 10 9 9 10 9 9 7 7 7 7 10 15 12 9 8 6 6 5 5 7 9
10 8 7 7 6 6 5 6 6 6 6 7 8 9 9 10 10 10 10 9 9 9 9 7 7 7 8 8 7 16 11 8 6 5 6 6 7 8
8 8 7 6 6 5 5 5 6 6 6 7 8 8 9 9 10 10 10 10 10 10 9 7 7 7 8 7 5 4 15 10 6 5 5 5 6 6
8 7 7 6 5 5 5 5 6 6 7 7 8 9 8 9 9 10 10 13 12 9 9 8 7 10 8 6 7 7 6 14 12 6 5 5 6 6
7 7 6 6 5 5 5 5 5 6 7 7 8 8 8 8 10 11 10 10 9 9 10 9 8 7 7 8 9 8 6 5 12 17 15 11 4 5
7 7 6 6 5 5 5 5 6 6 7 7 7 8 8 9 9 9 10 10 10 10 10 9 8 6 7 8 9 8 8 6 4 6 9 14 17 15
Wind_Direction
222 225 231 239 242 245 250 254 266 279 283 287 288 287 286 282 279 277 275 276 277 278 280 281 282 282 283 285 286 288 290 291 293 296 298 300 297 286
220 227 230 235 241 244 247 249 251 261 273 280 285 285 286 280 278 277 276 277 277 278 278 279 280 280 280 281 282 283 285 286 288 292 296 299 300 296
218 224 231 235 242 245 246 248 249 251 263 275 279 283 283 281 279 275 274 274 274 274 275 276 278 278 279 279 279 279 281 283 285 288 292 297 299 301
219 223 231 232 238 244 247 250 251 252 260 273 279 281 281 281 280 278 276 273 272 274 275 276 277 278 278 278 277 276 277 279 281 283 287 293 298 302
218 222 229 231 239 243 247 250 253 255 258 266 274 277 279 278 279 276 274 272 272 272 275 275 275 277 278 276 275 274 273 274 275 278 281 286 291 296
220 225 229 231 237 245 250 253 255 258 259 263 269 274 277 279 277 277 277 274 273 273 273 273 274 276 276 275 273 271 271 271 272 273 275 279 285 290
221 227 232 234 238 242 243 249 252 256 262 266 271 277 281 283 283 282 281 282 278 275 275 273 273 271 273 272 270 267 266 266 267 268 270 273 278 283
222 227 233 240 245 250 254 258 260 264 270 275 280 282 285 288 289 287 285 284 283 277 275 274 271 270 270 268 268 268 265 264 263 263 264 266 269 275
221 227 230 234 241 244 257 266 271 273 273 274 277 281 287 289 290 286 281 280 281 285 283 275 271 270 270 267 268 267 264 262 260 259 259 261 262 266
223 227 235 239 239 244 250 258 261 262 264 266 268 274 278 280 279 282 288 286 283 277 270 272 272 271 272 270 270 266 263 260 256 253 253 254 256 260
227 231 237 244 248 253 256 262 267 266 270 273 274 278 282 288 290 291 289 287 285 283 277 272 275 277 276 273 269 266 261 256 251 247 246 246 248 252
227 230 236 241 248 253 256 263 271 278 282 284 282 282 282 283 285 281 281 280 282 284 280 270 271 278 279 271 272 278 270 257 248 241 238 238 239 242
223 226 229 239 248 256 261 264 273 283 287 287 287 285 284 280 277 274 268 268 272 272 274 275 273 272 270 281 289 288 279 270 251 236 230 229 230 229
222 226 230 238 249 259 265 271 281 290 288 288 288 289 291 292 292 287 279 271 264 267 271 268 267 268 272 276 280 285 288 278 262 240 223 216 221 225
222 228 234 243 255 264 269 277 284 284 283 285 287 290 293 294 293 288 281 272 265 260 258 254 253 256 257 263 271 279 289 287 282 255 227 213 206 206
226 231 238 247 254 263 270 273 269 270 279 282 287 291 293 294 293 293 293 291 284 277 260 249 248 248 251 255 261 267 269 274 285 291 269 233 215 207
205 209 218 228 239 244 251 259 265 271 277 281 287 292 296 297 298 298 293 289 285 286 285 268 248 243 246 251 256 255 257 258 259 267 261 232 215 210
198 208 219 226 236 245 255 263 268 274 281 286 289 292 296 299 300 299 296 291 289 287 286 282 271 256 241 240 232 248 251 252 251 246 244 232 214 208
204 212 220 227 233 240 250 261 271 280 286 285 286 292 295 298 300 301 301 297 293 290 286 279 266 255 254 259 235 212 228 239 232 229 228 229 220 207
207 214 220 224 229 237 246 258 271 281 282 284 289 293 295 298 301 303 303 301 298 295 290 279 263 252 253 268 286 245 212 229 233 222 219 225 240 233
204 212 217 220 225 233 243 257 269 278 284 289 291 294 297 300 301 302 302 302 301 294 292 288 280 274 269 266 263 258 231 213 225 232 215 211 215 205
203 208 211 214 220 228 239 253 267 276 285 287 293 298 300 301 301 303 304 304 300 295 293 289 282 266 242 239 249 258 257 224 217 234 255 263 239 201
201 203 205 207 215 223 236 251 264 277 285 292 296 300 303 303 303 303 304 303 301 299 298 295 288 268 247 243 249 253 255 243 215 206 231 245 255 269